Weather History for Marsa Alam International, Egypt

Change the Weather History Date:

Saturday, January 4, 2014

  Actual Average Record
Temperature  
Mean Temperature 63 °F -  
Max Temperature 69 °F - - ()
Min Temperature 57 °F - - ()
Degree Days  
Heating Degree Days 2    
Growing Degree Days 13 (Base 50)    
Moisture  
Dew Point 50 °F    
Average Humidity 61    
Maximum Humidity 94    
Minimum Humidity 46    
Precipitation  
Precipitation 0.00 in - - ()
Sea Level Pressure  
Sea Level Pressure 30.00 in    
Wind  
Wind Speed 10 mph ()    
Max Wind Speed 18 mph    
Max Gust Speed -    
T = Trace of Precipitation, MM = Missing Value Source: Averaged Metar Reports

Daily Weather History Graph

Daily Weather History Graph

Search for Another Location

Airport:

Trip Planner

Search our weather history database for the weather conditions in past years. The results will help you decide how hot, cold, wet, or windy it might be!

Date:

Astronomy

Jan. 04, 2014 Rise Set
Actual Time 6:28 AM EET 5:04 PM EET
Civil Twilight 6:03 AM EET 5:29 PM EET
Nautical Twilight 5:35 AM EET 5:58 PM EET
Astronomical Twilight 5:07 AM EET 6:26 PM EET
Moon 8:42 AM EET (1/4) 8:35 PM EET (1/4)
Length of Visible Light 11h 26m
Length of Day
10h 36m
Waxing Crescent, 13% of the Moon is Illuminated
Jan 4
Waxing Crescent
Jan 8
First Quarter
Jan 16
Full
Jan 24
Last Quarter
Jan 30
New

Hourly Weather History & Observations

Time (EET) Temp. Dew Point Humidity Pressure Visibility Wind Dir Wind Speed Gust Speed Precip Events Conditions
12:00 AM 59.0 °F 50.0 °F 72% 30.06 in - North 10.4 mph - N/A   Clear
1:00 AM 59.0 °F 51.8 °F 77% 30.06 in - North 9.2 mph - N/A   Clear
2:00 AM 57.2 °F 50.0 °F 77% 30.06 in - North 8.1 mph - N/A   Clear
4:00 AM 59.0 °F 46.4 °F 63% 29.98 in - NW 11.5 mph - N/A   Clear
5:00 AM 60.8 °F 46.4 °F 59% 29.98 in - ESE 12.7 mph - N/A   Clear
6:00 AM 60.8 °F 48.2 °F 63% 30.01 in - SE 13.8 mph - N/A   Clear
7:00 AM 62.6 °F 50.0 °F 63% 30.01 in - North 12.7 mph - N/A   Clear
8:00 AM 62.6 °F 48.2 °F 59% 30.01 in - NNW 11.5 mph - N/A   Clear
9:00 AM 66.2 °F 46.4 °F 49% 30.04 in - NW 12.7 mph - N/A   Clear
10:00 AM 68.0 °F 46.4 °F 46% 30.04 in - NNW 13.8 mph - N/A   Clear
11:00 AM 68.0 °F 50.0 °F 52% 30.04 in - NNW 18.4 mph - N/A   Clear
12:00 PM 69.8 °F 48.2 °F 46% 29.98 in - North 12.7 mph - N/A   Clear
1:00 PM 68.0 °F 50.0 °F 52% 29.98 in - NNE 12.7 mph - N/A   Clear
2:00 PM 68.0 °F 51.8 °F 56% 29.98 in - North 12.7 mph - N/A   Clear
3:00 PM 68.0 °F 50.0 °F 52% 29.98 in - NNE 13.8 mph - N/A   Clear
4:00 PM 68.0 °F 66.2 °F 94% 29.95 in - North 11.5 mph - N/A   Clear
5:00 PM 68.0 °F 53.6 °F 60% 29.95 in - North 12.7 mph - N/A   Clear
6:00 PM 66.2 °F 48.2 °F 52% 29.95 in - North 12.7 mph - N/A   Clear
7:00 PM 64.4 °F 50.0 °F 59% 29.95 in - NNW 9.2 mph - N/A   Clear
8:00 PM 62.6 °F 48.2 °F 59% 29.95 in - North 8.1 mph - N/A   Clear
9:00 PM 60.8 °F 48.2 °F 63% 30.01 in - WNW 6.9 mph - N/A   Clear
10:00 PM 60.8 °F 48.2 °F 63% 30.01 in - West 8.1 mph - N/A   Clear
11:00 PM 60.8 °F 48.2 °F 63% 30.01 in - West 9.2 mph - N/A   Clear